Location: Chmeln�
(49.6483°N, 14.9871°E)
Time: 05:29:55
(UTC+00:00)

Cosmos 2082 Rocket - Pass Details

Date: 18 September 2020
Orbit: 834 x 853 km, 71.0° (Epoch: 22 October)

Event Time Altitude Azimuth Distance (km) Brightness Sun altitude
Rises 20:39:28 0° 331° (NNW) 3,393 6.4 -31.3°
Reaches altitude 10° 20:41:56 10° 334° (NNW) 2,456 5.4 -31.6°
Enters shadow 20:46:13 52° 350° (N) 1,030 2.8 -32.0°
